Regional Weather Roundup
Issued by NWS Upton, NY

Current Version | Previous Version | Graphics & Text | Print | Product List | Glossary Off
Versions: 1 2 3 4 5 6 7 8 9 10 11 12 13 14 15 16 17 18 19 20 21 22 23 24 25 26 27

000
ASUS41 KOKX 160308
RWROKX

REGIONAL WEATHER ROUNDUP
NATIONAL WEATHER SERVICE NEW YORK NY
1000 PM EST SUN JAN 15 2017

NOTE: "FAIR" INDICATES FEW OR NO CLOUDS BELOW 12,000 FEET WITH NO
SIGNIFICANT WEATHER AND/OR OBSTRUCTIONS TO VISIBILITY.

NYZ071-072-176-178-NJZ106-104-160400-
NEW YORK CITY METRO AREA

CITY           SKY/WX    TMP DP  RH WIND       PRES   REMARKS
Central Park   CLEAR     33  19  56 CALM      30.42S
Wall St Helipt CLEAR     35  22  58 W6        30.42S WCI  30
Bronx Bot Gard NOT AVBL
LaGuardia APRT PTCLDY    35  21  56 NW5       30.41S WCI  31
Kennedy INTL   PTCLDY    34  18  52 NW5       30.42S WCI  30
Breezy Point     N/A     34 N/A N/A NW5         N/A  WCI  30
Newark/Liberty CLEAR     32  19  58 NW6       30.41F WCI  26
Teterboro      CLEAR     31  21  66 CALM      30.41S
$$

NYZ177-179-078>081-160400-
LONG ISLAND NEW YORK

CITY           SKY/WX    TMP DP  RH WIND       PRES   REMARKS
Jones Beach      N/A     34 N/A N/A N5          N/A  WCI  30
Matinecock PT  NOT AVBL
Farmingdale    CLEAR     31  22  69 NW3       30.40S
MacArthur/ISP  PTCLDY    25  21  85 CALM      30.39F
Shirley        CLEAR     23  20  88 CALM      30.40F
Westhampton    CLEAR     17  14  88 CALM      30.41S
Southampton    NOT AVBL
Bridgehampton  NOT AVBL
East Hampton     N/A     19  16  89 CALM      30.39S
Montauk          N/A     36  19  50 N5        30.40F WCI  32
$$

NYZ052-065-067-160400-
HUDSON VALLEY

CITY           SKY/WX    TMP DP  RH WIND       PRES   REMARKS
White Plains   CLEAR     25  17  72 NW8       30.38R WCI  16
Newburgh       CLEAR     23  19  86 CALM      30.40R
Montgomery     CLEAR     30  17  58 NW3       30.38R
Poughkeepsie   CLEAR     21  17  84 CALM      30.40R
Albany         CLEAR     26  14  60 W5        30.42R WCI  20
$$

NJZ001-105-106-008-010-013-015-019>022-104-160400-
NEW JERSEY

CITY           SKY/WX    TMP DP  RH WIND       PRES   REMARKS
Newark/Liberty CLEAR     32  19  58 NW6       30.41F WCI  26
Teterboro      CLEAR     31  21  66 CALM      30.41S
Caldwell       CLEAR     25  20  81 CALM      30.41F
Somerville     CLOUDY    22  18  85 CALM      30.40S
Linden           N/A     30  20  66 CALM      30.42S
Sussex         CLEAR     21  16  81 CALM      30.40R
Andover          N/A     20  16  84 CALM      30.40R
Trenton        CLOUDY    28  20  71 NW3       30.41S
Millville      CLOUDY    30  28  92 CALM      30.43R
Atlantic City  MOCLDY    29  22  75 W3        30.42R
Wrightstown    CLOUDY    28  21  74 NW5       30.39S WCI  23
Toms River     CLOUDY    24  21  88 CALM      30.42S
Belmar         PTCLDY    28  22  78 W6        30.42S WCI  22
$$

PAZ047>061-062-071-160400-
EASTERN PENNSYLVANIA

CITY           SKY/WX    TMP DP  RH WIND       PRES   REMARKS
Philadelphia   CLOUDY    33  20  58 N8        30.44R WCI  26
Allentown      CLOUDY    27  17  66 CALM      30.41S
Scranton       CLEAR     21  17  84 SE6       30.38R WCI  13
$$

CTZ002-004>006-009-010-012-RIZ004-006-007-MAZ004-011-015-160400-
SOUTHERN NEW ENGLAND
 IN CT

CITY           SKY/WX    TMP DP  RH WIND       PRES   REMARKS
Bradley INTL   CLEAR     28  14  55 CALM      30.39F
Hartford       CLEAR     24  18  77 CALM      30.41S
Danbury        CLEAR     19  16  88 CALM      30.40R
Wtrbury/Oxford CLEAR     23  10  58 N6        30.37R WCI  16
Bridgeport     CLEAR     30  20  66 CALM      30.40S
Meriden        CLEAR     21  15  78 CALM      30.40S
New Haven      CLEAR     23  16  74 NW3       30.39F
Chester          N/A     28  12  50 CALM      30.38S
Groton         CLEAR     24  18  77 N3        30.39F
Wilimantic     CLEAR     22  18  85 CALM      30.40S

 IN RI

CITY           SKY/WX    TMP DP  RH WIND       PRES   REMARKS
Providence     CLEAR     26  16  65 W5        30.40R WCI  20
Block Island   NOT AVBL
Westerly       CLEAR     23  16  74 N3        30.40S
 IN MA

CITY           SKY/WX    TMP DP  RH WIND       PRES   REMARKS
Boston         CLEAR     28  12  51 N3        30.41R
Worcester      CLEAR     25  10  53 NW5       30.34S WCI  19
Westfield      CLEAR     21  15  78 CALM      30.38F
Provincetown   CLEAR     33  18  53 N12       30.40R WCI  24
Nantucket      CLEAR     29  17  61 N5        30.40R WCI  24
$$

ANZ330-335-338-340-345-350-353-355-160400-
COASTAL MARINE OBSERVATIONS


STATION/POSITION TIME  SKY/WX   TEMP    WIND        PRES    VSBY  WAVE
                                AIR SEA DIR/SP/G                  HT/PER
                 (UTC)          (F)     (DEG/KT/KT) (MB)    (MI)  (FT/S)
NY HARB ENTRANCE 0150            38 44  320/  4/  8 1029.4          1/11
20 S FIRE ISLAND 0150            38 45  330/  6/ 10 1029.3          1/11
GREAT SOUTH BAY  NOT AVBL
23 SSW MONTAUK P 0150            38 47  320/  6/ 10 1029.3          1/11
15 E BARNEGAT LI 0230               45                N/A           2/11
HUDSON CANYON    0150            41 53              1029.1          3/ 5
KINGS POINT      0236            34 38              1029.3
EXECUTION ROCKS  0245            34     260/  2/  6   N/A
CENTRAL LI SOUND 0215            36      10/  8/ 10   N/A           1
EASTERN LI SOUND NOT AVBL
ROBBINS REEF     0248            34     320/  5/  6 1030.0
$$


>>>>>>>>>>>>>>>>>>>>>>>>>>>> KEY <<<<<<<<<<<<<<<<<<<<<<<<<<<
>                                                          <
>     SKY/WX - Sky Condition/Present Weather               <
>     TMP    - Temperature in Fahrenheit                   <
>     DP     - Dew Point in Fahrenheit                     <
>     RH     - Relative Humidity in Percent                <
>     WIND   - Direction (from) and Speed in MPH           <
>     PRES   - Mean Sea Level Pressure (inches of Hg)      <
>     WCI    - Wind Chill Index                            <
>     VSB    - VISIBILITY IN MILES                         <
>     HX     - HEAT INDEX                                  <
>     TC     - TEMPERATURE IN CELSIUS                      <
>     VRB    - VARIABLE WIND DIRECTION                     <
>                                                          <
>>>>>>>>>>>>>>>>>>>>>>>>>>>> KEY <<<<<<<<<<<<<<<<<<<<<<<<<<<




USA.gov is the U.S. government's official web portal to all federal, state and local government web resources and services.